Track STARLINK-3888 now! 10-day predictions STARLINK-3888 is classified as:
1 52454U 22049D 22187.58334491 -.00050383 00000-0 -31697-2 0 9993 2 52454 53.2155 334.0576 0001643 51.9487 119.0722 15.08840950 1305